Lake Wappapello Weather Center

Moon Phase Calendar



Lake Wappapello Water Level
Online Cameras

 


      

Current Conditions in Greenville
4/19/2024 3:44:13 PM

65°F
Feels Like 62
Clouds
Humidity
34%
Pressure
30.12"
Wind
8.2 mph (NNE)
Dew Point
36°F
UV Index
4/10 (Moderate)
Visibility
6 mi

Hourly Forecast

Date & Time Fri, Apr 19
3:00 PM
Fri, Apr 19
4:00 PM
Fri, Apr 19
5:00 PM
Fri, Apr 19
6:00 PM
Fri, Apr 19
7:00 PM
Fri, Apr 19
8:00 PM
Fri, Apr 19
9:00 PM
Fri, Apr 19
10:00 PM
Fri, Apr 19
11:00 PM
Sat, Apr 20
12:00 AM
Sat, Apr 20
1:00 AM
Sat, Apr 20
2:00 AM
Sat, Apr 20
3:00 AM
Sat, Apr 20
4:00 AM
Sat, Apr 20
5:00 AM
Sat, Apr 20
6:00 AM
Sat, Apr 20
7:00 AM
Sat, Apr 20
8:00 AM
Sat, Apr 20
9:00 AM
Sat, Apr 20
10:00 AM
Sat, Apr 20
11:00 AM
Sat, Apr 20
12:00 PM
Sat, Apr 20
1:00 PM
Sat, Apr 20
2:00 PM
Sat, Apr 20
3:00 PM
Sat, Apr 20
4:00 PM
Sat, Apr 20
5:00 PM
Sat, Apr 20
6:00 PM
Sat, Apr 20
7:00 PM
Sat, Apr 20
8:00 PM
Sat, Apr 20
9:00 PM
Sat, Apr 20
10:00 PM
Sat, Apr 20
11:00 PM
Sun, Apr 21
12:00 AM
Sun, Apr 21
1:00 AM
Sun, Apr 21
2:00 AM
Sun, Apr 21
3:00 AM
Sun, Apr 21
4:00 AM
Sun, Apr 21
5:00 AM
Sun, Apr 21
6:00 AM
Sun, Apr 21
7:00 AM
Sun, Apr 21
8:00 AM
Sun, Apr 21
9:00 AM
Sun, Apr 21
10:00 AM
Sun, Apr 21
11:00 AM
Sun, Apr 21
12:00 PM
Sun, Apr 21
1:00 PM
Sun, Apr 21
2:00 PM
Condition
Clouds

Clouds

Clouds

Clouds

Clouds

Clouds

Clouds

Clouds

Clouds

Clouds

Clouds

Clouds

Clouds

Clouds

Clouds

Clouds

Clouds

Clear

Clear

Clear

Clear

Clear

Clouds

Clear

Clouds

Clouds

Clouds

Clouds

Clouds

Clouds

Clouds

Clouds

Clouds

Clouds

Clouds

Clouds

Clouds

Clouds

Clouds

Clouds

Clouds

Clouds

Clouds

Clouds

Clouds

Clouds

Clouds

Clouds
Temperature 65°F65°F64°F63°F60°F56°F51°F50°F49°F49°F48°F47°F46°F45°F44°F44°F44°F49°F53°F56°F59°F61°F63°F65°F65°F64°F64°F61°F57°F52°F49°F48°F48°F47°F46°F46°F45°F45°F44°F43°F43°F47°F51°F54°F56°F59°F61°F63°F
Feels Like 62°F62°F62°F61°F58°F53°F49°F48°F47°F46°F45°F44°F43°F42°F42°F40°F41°F45°F50°F54°F56°F59°F61°F62°F62°F62°F61°F59°F54°F50°F47°F45°F46°F45°F44°F44°F42°F42°F41°F41°F41°F44°F48°F51°F53°F56°F58°F60°F
Cloudiness 100%100%100%100%100%100%100%100%100%100%100%100%100%93%73%60%50%0%0%0%8%8%21%6%54%70%77%82%85%100%88%80%79%83%86%100%100%100%100%100%100%42%24%18%14%12%11%28%
Visibility 6 mi6 mi6 mi6 mi6 mi6 mi6 mi6 mi6 mi6 mi6 mi6 mi6 mi6 mi6 mi6 mi6 mi6 mi6 mi6 mi6 mi6 mi6 mi6 mi6 mi6 mi6 mi6 mi6 mi6 mi6 mi6 mi6 mi6 mi6 mi6 mi6 mi6 mi6 mi6 mi6 mi6 mi6 mi6 mi6 mi6 mi6 mi6 mi
Precipitation 0%0%0%0%0%0%0%0%0%0%0%0%0%0%0%0%0%0%0%0%0%0%0%0%0%0%0%0%0%0%0%0%0%0%0%0%0%0%0%0%0%0%0%0%0%0%0%0%
Humidity 34%34%35%39%46%53%63%65%67%67%67%68%68%69%72%73%72%60%46%39%36%33%31%30%30%31%32%41%49%56%61%65%63%64%67%66%67%66%68%69%71%60%50%43%39%36%34%33%
Dew Point 36°F36°F36°F38°F39°F39°F39°F39°F39°F38°F37°F37°F36°F36°F35°F35°F35°F35°F33°F32°F32°F32°F32°F33°F33°F33°F33°F37°F38°F36°F36°F37°F35°F35°F35°F35°F34°F34°F34°F34°F34°F33°F33°F31°F32°F32°F32°F32°F
Pressure 30.12"30.12"30.12"30.12"30.15"30.18"30.21"30.21"30.21"30.24"30.24"30.24"30.24"30.27"30.27"30.3"30.33"30.33"30.33"30.33"30.3"30.3"30.27"30.24"30.21"30.21"30.21"30.21"30.21"30.24"30.27"30.27"30.27"30.24"30.27"30.27"30.27"30.27"30.27"30.27"30.3"30.3"30.3"30.3"30.27"30.27"30.24"30.21"
Wind Speed 8.2 mph8.2 mph9.2 mph8.5 mph8.6 mph6.9 mph5.4 mph5.8 mph5.8 mph6.4 mph6.4 mph6.3 mph6.4 mph6.3 mph4.7 mph5.4 mph6 mph7.8 mph8.4 mph7.8 mph7.2 mph6.1 mph6.4 mph7.1 mph8.4 mph8.3 mph8.3 mph7.7 mph7.4 mph5.8 mph5.4 mph5.7 mph5 mph5.1 mph3.8 mph4 mph5.5 mph5 mph4.3 mph4.2 mph4 mph5.7 mph6.2 mph6.4 mph5.7 mph5 mph4.8 mph5.3 mph
Wind
Direction
34°
NE
33°
NNE
41°
NE
53°
NE
56°
NE
52°
NE
44°
NE
33°
NNE
25°
NNE
24°
NNE
23°
NNE
18°
NNE
13°
NNE
12°
NNE
12°
NNE

N
10°
N
23°
NNE
31°
NNE
34°
NE
31°
NNE
27°
NNE

N
355°
N
353°
N
350°
N
348°
NNW
353°
N
348°
NNW
332°
NNW
352°
N

N
15°
NNE
33°
NNE
25°
NNE
14°
NNE

N
359°
N

N
358°
N
358°
N
10°
N
16°
NNE
24°
NNE
21°
NNE

N
354°
N
341°
NNW

Daily Forecast

Date High Low Precip. Humidity
Today
Apr 19

Rain
65 °F
49 °F
100%
36%
Saturday
Apr 20

Clear
65 °F
44 °F
0%
33%
Sunday
Apr 21

Clouds
63 °F
43 °F
0%
36%
Monday
Apr 22

Clear
65 °F
42 °F
0%
41%
Tuesday
Apr 23

Rain
61 °F
50 °F
100%
96%
Wednesday
Apr 24

Clouds
64 °F
44 °F
0%
48%
Thursday
Apr 25

Rain
49 °F
42 °F
100%
76%
Friday
Apr 26

Rain
67 °F
49 °F
100%
97%
Saturday
Apr 27

Rain
71 °F
64 °F
99%
94%
Sunday
Apr 28

Rain
85 °F
67 °F
100%
60%
Monday
Apr 29

Rain
83 °F
63 °F
100%
60%
Tuesday
Apr 30

Rain
83 °F
60 °F
100%
44%
Wednesday
May 1

Rain
81 °F
64 °F
100%
65%
Thursday
May 2

Rain
68 °F
65 °F
100%
96%
Friday
May 3

Rain
76 °F
65 °F
100%
85%
Saturday
May 4

Rain
85 °F
66 °F
100%
58%

Temperature 8-14 Day Outlook



Precipitation 8-14 Day Outlook




Quick Links
Lake Wappapello News
Lake Wappapello Photos
Lake Wappapello Videos




About Us
Contact Us
Site Map
Search Site
Advertise With Us
   
Wappapello.USLakes.info
THE LAKE WAPPAPELLO WEBSITE

Copyright 2024, Lakes Online
Privacy    |    Legal